Tracking 25656 objects as of 21-May-2022
HD Live streaming from Space Station
objects crossing your sky now

FLOCK 4V 3

Track FLOCK 4V 3 now!
10-day predictions
FLOCK 4V 3 is classified as:


NORAD ID: 46322
Int'l Code: 2020-061BC
Perigee: 531.4 km
Apogee: 532.9 km
Inclination: 97.5 °
Period: 95.1 minutes
Semi major axis: 6903 km
RCS: Unknown
Launch date: September 3, 2020
Source: United States (US)
Launch site: FRENCH GUIANA (FRGUI)
aabbcc
Your satellite tracking list
Your tracking list is empty




NASA's NSSDC Master Catalog

Two Line Element Set (TLE):
1 46322U 20061BC  22141.45468072  .00009175  00000-0  51315-3 0  9992
2 46322  97.4506 212.7962 0001092 268.9499  91.1607 15.13687841 94403
Source of the keplerian elements: AFSPC